ONEWEB-0160

Last updated on April 25, 2021, 12:02 a.m. UTC

1 48060U 21025U   21114.58336806 -.01106662  00000-0 -59967-1 0  9997
2 48060  87.4107 339.4005 0007333 146.3917  37.0519 15.17382397  1774
UTC
Height (km)
Latitude
Longitude
Inclination
Orbital Period
UTC large
Height (km)
Speed (km/s)
/
Latitude / Longitude
Inclination (degrees)
Orbital Period (minutes)
Azimuth
Elevation
Range (km)
Doppler Factor
iOS Compass Heading
iOS Angle

Next 30 passes for location: Hong Kong

Rise time Rise Azimuth (degrees) Set time Set Azimuth (degrees) Duration Max altitude (degrees)

No matching passes for this satellites